カタログに戻る

STARLINK-38120

運用中通信SSO
NORAD 100120·PAYLOAD·🇺🇸 United States

打ち上げ Jul 21, 2026 から Vandenberg Space Force Base

Loading…

次のパス (今後24時間)

TLE

最新Source: Space-Track

元期: Sep 14, 2026, 11:31 UTC

1 A0120U 26166V   26257.48007825  .00000418  00000-0  36704-5 0  9998
2 A0120  97.2845 275.4996 0000988  95.0356 265.1022 15.75181566  8657

AllMySatでSTARLINK-38120をリアルタイム追跡

Download on the App Store